User: anonymous   Login
Location: Plymouth
(43.7570°N, 71.6890°W)
Time: 01:06:15
(UTC-05:00)
Language:

Cosmos 2016 Rocket - Orbit

View from above orbital plane
View from above orbital plane
View from above satellite
View from above satellite

Ground track
Ground track

The orbit data is extracted from the following two-line orbital elements,

1 19922U 89028B   18055.48714799 -.00000070 +00000-0 -84997-4 0  9998
2 19922 082.9561 239.6100 0035425 258.6947 101.0229 13.77197345451706
Epoch (UTC): 24 February 2018 11:41:29
Eccentricity: 0.0035425
inclination: 82.9561°
perigee height: 948 km
apogee height: 1000 km
right ascension of ascending node: 239.6100°
argument of perigee: 258.6947°
revolutions per day: 13.77197345
mean anomaly at epoch: 101.0229°
orbit number at epoch: 45170

The dashed part of the orbit path shows where the satellite is in the earth's shadow,  

DLR